Humidity-temperature Sensor

Selected Measurement Type: Relative Humidity

 
Relative Humidity [%]     6 entries per hour
Showing data from 4/11/2021 (00:00:00 Z) to 4/10/2021 (00:01:00 Z)
Previous Next [ Day | 3-Days | 7-Days ]
First Last
Prev [ Day | 3-Days | 7-Days ] Next
First Last

Start Time:     :
End Time:     :     
Time (in GMT) :00 :50 :40 :30 :20 :10
Previous Next [ Day | 3-Days | 7-Days ]
First Last
Prev [ Day | 3-Days | 7-Days ] Next
First Last


123 => good data
MM => data is determined as missing
-- => data not received/configured
Back to Top Back to Top
4/11/2021 00:00 to 23:10 81.24 81.61 82.42 83.34 82.58 82.37
4/10/2021 23:00 to 22:10 82.83 83.32 84.00 84.06 83.05 82.13
4/10/2021 22:00 to 21:10 82.44 83.36 83.71 84.41 84.76 85.21
4/10/2021 21:00 to 20:10 85.58 85.85 84.68 83.69 84.76 85.99
4/10/2021 20:00 to 19:10 86.77 86.96 87.76 89.24 91.11 92.18
4/10/2021 19:00 to 18:10 92.30 92.07 91.44 91.17 90.59 91.09
4/10/2021 18:00 to 17:10 91.54 92.14 92.48 92.50 92.48 92.50
4/10/2021 17:00 to 16:10 92.05 91.62 91.62 91.00 90.22 90.14
4/10/2021 16:00 to 15:10 90.31 90.24 90.43 90.66 90.72 90.63
4/10/2021 15:00 to 14:10 90.72 90.78 91.00 91.15 91.50 91.27
4/10/2021 14:00 to 13:10 90.68 89.81 89.53 89.90 89.90 90.14
4/10/2021 13:00 to 12:10 90.31 90.37 90.35 90.20 90.00 89.90
4/10/2021 12:00 to 11:10 89.83 89.77 89.87 89.83 89.94 89.98
4/10/2021 11:00 to 10:10 90.08 90.27 90.59 90.63 90.66 90.88
4/10/2021 10:00 to 9:10 91.21 91.23 91.29 91.42 91.81 92.28
4/10/2021 09:00 to 8:10 92.14 91.09 90.08 88.37 88.23 87.53
4/10/2021 08:00 to 7:10 87.22 86.85 86.73 86.73 86.83 86.75
4/10/2021 07:00 to 6:10 86.73 86.77 86.61 86.55 86.40 86.26
4/10/2021 06:00 to 5:10 86.03 85.99 85.97 86.03 85.85 85.66
4/10/2021 05:00 to 4:10 85.58 85.52 85.37 84.94 85.07 85.03
4/10/2021 04:00 to 3:10 84.94 85.03 84.88 84.45 84.55 84.80
4/10/2021 03:00 to 2:10 84.88 84.74 85.42 85.19 84.51 84.43
4/10/2021 02:00 to 1:10 84.10 84.94 86.44 87.20 87.68 87.57
4/10/2021 01:00 to 0:10 87.43 87.88 88.79 90.29 91.09 91.58